Location: La Oliva
(42.2466°N, 2.9955°E)
Time: 07:53:29
(UTC+00:00)

Cosmos 1023 Rocket - Pass Details

Date: 22 April 2021
Orbit: 736 x 772 km, 74.1° (Epoch: 07 May)

Event Time Altitude Azimuth Distance (km) Brightness Sun altitude
Rises 20:03:01 0° 194° (SSW) 3,156 7.5 -15.1°
Reaches altitude 10° 20:05:21 10° 193° (SSW) 2,235 6.7 -15.4°
Maximum altitude 20:10:24 77° 108° (ESE) 759 4.3 -16.2°
Drops below altitude 10° 20:15:29 10° 23° (NNE) 2,252 7.1 -17.0°
Sets 20:17:51 0° 22° (NNE) 3,182 7.9 -17.3°
